Location: ????????
(55.6189°N, 38.3031°E)
Time: 02:40:37
(UTC+00:00)

Meteor 1-31 Rocket - Pass Details

Date: 15 November 2019
Orbit: 522 x 547 km, 97.6° (Epoch: 11 December)

Event Time Altitude Azimuth Distance (km) Brightness Sun altitude
Rises 02:35:07 0° 13° (NNE) 2,676 6.4 -20.1°
Reaches altitude 10° 02:37:14 10° 11° (N) 1,784 5.5 -19.8°
Maximum altitude 02:41:03 68° 288° (WNW) 577 2.6 -19.3°
Enters shadow 02:43:16 24° 211° (SSW) 1,133 4.2 -19.0°
